When you browse on this site, cookies collect data to enhance your experience and personalize the content and advertising you see.
Visit our Privacy Policy to learn more. By continuing to use the site, you agree to this use of cookies and data.
  • In Österreich
  • Länderverzeichnis
  • Für 7 Tage
  • Wassertemperatur
  • Wetterkarte
  • News
  • Widgets
  • user-avatar
    Anmelden

    Stündliche Wetter Barnaul

    Heute, 6 April, Montag

    Zeit Temperatur Niederschläge Wind Luftdruck Luftfeuchtigkeit
    00:00 -1°C° 0 mm 3 m/S 742 mmHg 77%
    01:00 -1°C° 0 mm 3 m/S 742 mmHg 82%
    02:00 -1°C° 0 mm 2 m/S 741 mmHg 87%
    03:00 -1°C° 0 mm 2 m/S 741 mmHg 92%
    04:00 -1°C° 0 mm 2 m/S 741 mmHg 93%
    05:00 +1°C° 0 mm 2 m/S 740 mmHg 95%
    06:00 +1°C° 0 mm 2 m/S 740 mmHg 95%
    07:00 +2°C° 0 mm 2 m/S 740 mmHg 93%
    08:00 +3°C° 0 mm 2 m/S 740 mmHg 91%
    09:00 +4°C° 0 mm 3 m/S 741 mmHg 89%
    10:00 +4°C° 0 mm 3 m/S 741 mmHg 89%
    11:00 +4°C° 0 mm 4 m/S 741 mmHg 90%
    12:00 +5°C° 0 mm 5 m/S 742 mmHg 90%
    13:00 +5°C° 0 mm 5 m/S 742 mmHg 90%
    14:00 +3°C° 0 mm 5 m/S 743 mmHg 91%
    15:00 +3°C° 0 mm 5 m/S 743 mmHg 91%
    16:00 +4°C° 0 mm 4 m/S 744 mmHg 93%
    17:00 +3°C° 0 mm 3 m/S 744 mmHg 94%
    18:00 +3°C° 0 mm 3 m/S 744 mmHg 96%
    19:00 +4°C° 0 mm 2 m/S 744 mmHg 97%
    20:00 +4°C° 0 mm 2 m/S 745 mmHg 97%
    21:00 +5°C° 0 mm 1 m/S 745 mmHg 98%
    22:00 +5°C° 0 mm 1 m/S 745 mmHg 98%
    23:00 +5°C° 0 mm 1 m/S 745 mmHg 98%

    Morgen, 7 April, Dienstag

    Zeit Temperatur Niederschläge Wind Luftdruck Luftfeuchtigkeit
    00:00 +4°C° 0 mm 2 m/S 745 mmHg 98%
    01:00 +4°C° 0 mm 2 m/S 744 mmHg 97%
    02:00 +4°C° 0 mm 2 m/S 744 mmHg 97%
    03:00 +4°C° 0 mm 2 m/S 744 mmHg 97%
    04:00 +3°C° 0 mm 2 m/S 744 mmHg 97%
    05:00 +3°C° 0 mm 2 m/S 744 mmHg 97%
    06:00 +2°C° 0 mm 3 m/S 745 mmHg 97%
    07:00 +3°C° 0 mm 3 m/S 744 mmHg 96%
    08:00 +3°C° 0 mm 3 m/S 744 mmHg 94%
    09:00 +4°C° 0 mm 3 m/S 744 mmHg 93%
    10:00 +7°C° 0 mm 3 m/S 743 mmHg 86%
    11:00 +9°C° 0 mm 3 m/S 743 mmHg 80%
    12:00 +10°C° 0 mm 4 m/S 743 mmHg 74%
    13:00 +11°C° 0 mm 4 m/S 742 mmHg 72%
    14:00 +12°C° 0 mm 4 m/S 742 mmHg 70%
    15:00 +13°C° 0 mm 4 m/S 741 mmHg 68%
    16:00 +12°C° 0 mm 4 m/S 740 mmHg 71%
    17:00 +11°C° 0 mm 4 m/S 740 mmHg 74%
    18:00 +11°C° 0 mm 4 m/S 740 mmHg 76%
    19:00 +10°C° 0 mm 4 m/S 739 mmHg 80%
    20:00 +8°C° 0 mm 4 m/S 739 mmHg 83%
    21:00 +7°C° 0 mm 4 m/S 739 mmHg 87%
    22:00 +7°C° 0 mm 4 m/S 738 mmHg 85%
    23:00 +8°C° 0 mm 4 m/S 738 mmHg 83%

    übermorgen, 8 April, Mittwoch

    Zeit Temperatur Niederschläge Wind Luftdruck Luftfeuchtigkeit
    00:00 +8°C° 0 mm 4 m/S 738 mmHg 81%
    01:00 +8°C° 0 mm 4 m/S 738 mmHg 80%
    02:00 +8°C° 0 mm 4 m/S 738 mmHg 79%
    03:00 +8°C° 0 mm 4 m/S 738 mmHg 78%
    04:00 +7°C° 0 mm 4 m/S 738 mmHg 79%
    05:00 +6°C° 0 mm 4 m/S 739 mmHg 80%
    06:00 +5°C° 0 mm 3 m/S 740 mmHg 81%
    07:00 +5°C° 0 mm 3 m/S 741 mmHg 78%
    08:00 +5°C° 0 mm 3 m/S 741 mmHg 75%
    09:00 +5°C° 0 mm 3 m/S 742 mmHg 72%
    10:00 +7°C° 0 mm 3 m/S 743 mmHg 66%
    11:00 +6°C° 0 mm 4 m/S 744 mmHg 60%
    12:00 +7°C° 0 mm 5 m/S 744 mmHg 54%
    13:00 +7°C° 0 mm 5 m/S 745 mmHg 54%
    14:00 +7°C° 0 mm 5 m/S 745 mmHg 54%
    15:00 +7°C° 0 mm 5 m/S 746 mmHg 54%
    16:00 +6°C° 0 mm 4 m/S 746 mmHg 55%
    17:00 +7°C° 0 mm 3 m/S 747 mmHg 55%
    18:00 +5°C° 0 mm 3 m/S 747 mmHg 56%
    19:00 +6°C° 0 mm 2 m/S 748 mmHg 57%
    20:00 +5°C° 0 mm 2 m/S 748 mmHg 59%
    21:00 +5°C° 0 mm 1 m/S 748 mmHg 61%
    22:00 +5°C° 0 mm 1 m/S 749 mmHg 62%
    23:00 +4°C° 0 mm 1 m/S 749 mmHg 63%

    9 April, Donnerstag

    Zeit Temperatur Niederschläge Wind Luftdruck Luftfeuchtigkeit
    00:00 +4°C° 0 mm 1 m/S 749 mmHg 65%
    01:00 +3°C° 0.1 mm 1 m/S 749 mmHg 69%
    02:00 +3°C° 0.1 mm 1 m/S 749 mmHg 74%
    03:00 +3°C° 0.1 mm 1 m/S 749 mmHg 79%
    04:00 +2°C° 0 mm 1 m/S 749 mmHg 81%
    05:00 +2°C° 0 mm 1 m/S 749 mmHg 84%
    06:00 +2°C° 0 mm 1 m/S 749 mmHg 86%
    07:00 +3°C° 0 mm 1 m/S 749 mmHg 82%
    08:00 +4°C° 0 mm 1 m/S 749 mmHg 78%
    09:00 +5°C° 0 mm 1 m/S 750 mmHg 74%
    10:00 +6°C° 0 mm 1 m/S 750 mmHg 67%
    11:00 +6°C° 0 mm 1 m/S 750 mmHg 59%
    12:00 +7°C° 0 mm 1 m/S 750 mmHg 52%
    13:00 +7°C° 0 mm 1 m/S 750 mmHg 48%
    14:00 +7°C° 0 mm 1 m/S 751 mmHg 44%
    15:00 +7°C° 0 mm 1 m/S 751 mmHg 40%
    16:00 +7°C° 0 mm 1 m/S 751 mmHg 43%
    17:00 +6°C° 0 mm 2 m/S 752 mmHg 45%
    18:00 +5°C° 0 mm 2 m/S 752 mmHg 48%
    19:00 +4°C° 0 mm 2 m/S 753 mmHg 59%
    20:00 +2°C° 0 mm 3 m/S 753 mmHg 71%
    21:00 0°C° 0 mm 4 m/S 754 mmHg 83%
    22:00 0°C° 0.1 mm 4 m/S 754 mmHg 86%
    23:00 0°C° 0.1 mm 4 m/S 754 mmHg 89%

    10 April, Freitag

    Zeit Temperatur Niederschläge Wind Luftdruck Luftfeuchtigkeit
    00:00 -1°C° 0.1 mm 4 m/S 755 mmHg 92%
    01:00 0°C° 0.2 mm 3 m/S 755 mmHg 93%
    02:00 0°C° 0.2 mm 3 m/S 755 mmHg 95%
    03:00 -1°C° 0.2 mm 2 m/S 755 mmHg 96%
    04:00 -1°C° 0 mm 2 m/S 755 mmHg 95%
    05:00 -1°C° 0 mm 2 m/S 755 mmHg 95%
    06:00 -1°C° 0 mm 2 m/S 756 mmHg 94%
    07:00 +1°C° 0 mm 2 m/S 756 mmHg 86%
    08:00 +2°C° 0 mm 2 m/S 756 mmHg 78%
    09:00 +4°C° 0 mm 2 m/S 756 mmHg 69%
    10:00 +5°C° 0 mm 2 m/S 756 mmHg 60%
    11:00 +6°C° 0 mm 2 m/S 755 mmHg 50%
    12:00 +7°C° 0 mm 3 m/S 755 mmHg 40%
    13:00 +7°C° 0 mm 2 m/S 755 mmHg 38%
    14:00 +8°C° 0 mm 2 m/S 755 mmHg 36%
    15:00 +8°C° 0 mm 2 m/S 755 mmHg 34%
    16:00 +8°C° 0 mm 2 m/S 754 mmHg 35%
    17:00 +9°C° 0 mm 1 m/S 754 mmHg 36%
    18:00 +9°C° 0 mm 1 m/S 754 mmHg 36%
    19:00 +8°C° 0 mm 1 m/S 754 mmHg 41%
    20:00 +7°C° 0 mm 1 m/S 754 mmHg 46%
    21:00 +5°C° 0 mm 1 m/S 754 mmHg 51%
    22:00 +5°C° 0 mm 1 m/S 754 mmHg 54%
    23:00 +4°C° 0 mm 1 m/S 754 mmHg 56%

    11 April, Samstag

    Zeit Temperatur Niederschläge Wind Luftdruck Luftfeuchtigkeit
    00:00 +3°C° 0 mm 2 m/S 753 mmHg 59%
    01:00 +2°C° 0 mm 2 m/S 753 mmHg 62%
    02:00 +2°C° 0 mm 2 m/S 753 mmHg 65%
    03:00 +1°C° 0 mm 2 m/S 753 mmHg 68%
    04:00 +1°C° 0 mm 2 m/S 753 mmHg 70%
    05:00 +1°C° 0 mm 2 m/S 753 mmHg 73%
    06:00 +1°C° 0 mm 2 m/S 753 mmHg 75%
    07:00 +2°C° 0 mm 2 m/S 753 mmHg 68%
    08:00 +4°C° 0 mm 2 m/S 753 mmHg 61%
    09:00 +6°C° 0 mm 2 m/S 753 mmHg 54%
    10:00 +7°C° 0 mm 2 m/S 753 mmHg 48%
    11:00 +8°C° 0 mm 2 m/S 753 mmHg 43%
    12:00 +10°C° 0 mm 1 m/S 753 mmHg 37%
    13:00 +10°C° 0 mm 2 m/S 753 mmHg 36%
    14:00 +10°C° 0 mm 2 m/S 752 mmHg 34%
    15:00 +10°C° 0 mm 2 m/S 752 mmHg 33%
    16:00 +10°C° 0 mm 2 m/S 752 mmHg 36%
    17:00 +10°C° 0 mm 3 m/S 751 mmHg 38%
    18:00 +9°C° 0 mm 3 m/S 751 mmHg 41%
    19:00 +8°C° 0 mm 3 m/S 751 mmHg 47%
    20:00 +7°C° 0 mm 3 m/S 751 mmHg 54%
    21:00 +5°C° 0 mm 2 m/S 751 mmHg 60%
    22:00 +5°C° 0 mm 2 m/S 750 mmHg 62%
    23:00 +4°C° 0 mm 2 m/S 750 mmHg 63%
    Mehr zeigen